Location: Mangareia Stream
(40.8667°S, 175.8667°E)
Time: 15:36:58
(UTC+00:00)

Daily predictions for brighter satellites

Satellite Brightness Start Highest point End
(mag) Time Altitude Azimuth Time Altitude Azimuth Time Altitude Azimuth
USA 59 Rocket 3.3 15:56:05 16° NNE 15:56:05 16° NNE 15:57:04 10° NNE
Atlas Centaur 2 4.3 16:15:08 19° NE 16:15:08 19° NE 16:17:00 10° ENE
USA 215 4.3 16:13:42 10° E 16:19:19 36° SSE 16:19:19 36° SSE
CZ-3 R/B 4.4 16:02:41 10° NW 16:20:59 27° N 16:28:16 10° ENE
Cosmos 1464 Rocket 4.3 16:47:40 59° NNE 16:47:40 59° NNE 16:52:44 10° N
SME Rocket 4.2 16:39:26 10° NNE 16:48:04 87° ESE 16:48:22 82° S
Tsikada Rocket 4.5 16:55:51 10° N 17:01:56 58° E 17:08:02 10° SSE
Cosmos 1992 Rocket 4.1 17:11:26 63° SSE 17:12:07 72° ESE 17:17:21 10° NNE
PSLV R/B 3.9 17:11:00 10° NNE 17:15:05 61° E 17:15:05 61° E
Cosmos 1697 Rocket 3.6 17:12:12 24° S 17:15:13 45° ESE 17:20:39 10° NE
Cosmos 1816 Rocket 4.4 17:11:32 10° NNW 17:18:03 64° WSW 17:23:48 10° S
SL-4 R/B 4.1 17:23:35 19° SSE 17:23:35 19° SSE 17:25:19 10° SE
Cosmos 1340 Rocket 3.4 17:29:53 10° N 17:33:44 56° E 17:37:41 10° SSE
Cosmos 1980 Rocket 3.7 17:31:54 10° S 17:36:55 32° ESE 17:41:57 10° ENE
USA 59 Rocket 3.1 17:42:41 11° NW 17:42:41 11° NW 17:43:00 10° NW
SJ-7 4.4 17:34:33 10° NNE 17:38:36 76° ESE 17:39:59 40° S
Cosmos 1833 Rocket 2.6 17:39:15 26° NW 17:42:24 61° WSW 17:48:03 10° SSE
Cosmos 1340 2.8 17:43:57 45° SSE 17:44:45 62° E 17:48:07 10° NNE
Tiangong -0.2 17:46:01 22° N 17:46:01 22° N 17:47:49 10° NNE
Cosmos 1842 Rocket 3.6 17:42:00 10° NNW 17:46:26 58° W 17:50:55 10° S
Okean 3 Rocket 3.5 17:47:20 40° SSW 17:48:50 66° W 17:53:15 10° N
H-2A R/B (2) 4.2 17:47:46 10° NNW 17:50:53 20° NE 17:57:31 10° E
COSMO-SKYMED 1 4.3 17:47:57 10° SSE 17:52:00 34° E 17:55:59 10° NNE
Meteor 1-31 Rocket 3.9 17:50:17 10° NE 17:53:52 42° ESE 17:57:32 10° S
Cosmos 2034 Rocket 4.3 17:52:17 28° SW 17:54:53 41° W 18:00:36 10° NNW
Cosmos 1656 4.3 17:56:57 32° W 17:57:13 32° WNW 18:02:02 10° NNW
Spot 4 Rocket 4.3 17:52:31 10° N 17:57:26 46° W 17:59:36 30° SW
Meteor 1-10 Rocket 4.3 17:52:22 10° NNW 17:58:18 69° W 18:04:18 10° S
Atlas Centaur 2 3.5 17:57:21 17° NW 18:00:11 24° NNW 18:04:05 10° NE
USA 215 3.2 17:55:33 10° NE 18:02:07 84° NW 18:06:40 22° SW
Helios 1B rocket 3.4 17:58:40 10° NE 18:02:25 44° ESE 18:06:15 10° S
Cosmos 1023 Rocket 4.4 17:58:26 10° NNW 18:03:36 88° WSW 18:08:54 10° SSE
Cosmos 1408 Rocket 3.5 18:00:44 12° S 18:04:50 79° W 18:09:17 10° N
Meteor 2-9 Rocket 4.3 17:59:24 10° S 18:04:59 80° E 18:10:37 10° NNE
Cosmos 2279 Rocket 4.1 18:00:12 10° S 18:06:32 83° E 18:12:46 10° N
CORIOLIS 4.2 18:01:46 10° N 18:07:06 62° WNW 18:12:32 10° SSW
ATLAS CENTAUR R/B 4.5 18:04:47 10° NNE 18:07:49 19° ENE 18:10:51 10° ESE
Cosmos 1151 Rocket 3.8 18:03:56 10° N 18:08:11 55° E 18:12:32 10° SSE
CZ-2C R/B 2.8 18:06:27 10° NNE 18:10:12 76° ESE 18:14:01 10° S
COSMOS 2406 4.0 18:07:19 10° N 18:12:50 54° ENE 18:18:26 10° SSE
YAOGAN 11 4.1 18:08:20 10° SSE 18:12:50 84° ENE 18:17:12 10° NNW
CZ-3 Stage 3 4.2 18:11:59 10° NNW 18:15:55 26° NE 18:26:04 10° E
Meteor 1-11 Rocket 3.6 18:10:25 10° SSW 18:15:58 65° W 18:21:26 10° N
Cosmos 1743 Rocket 3.5 18:16:24 10° S 18:20:49 85° E 18:25:11 10° N
Cosmos 1140 Rocket 3.4 18:16:06 10° NNW 18:21:14 65° WSW 18:26:28 10° SSE
NOSS 3-4 (C) 3.8 18:17:22 19° SW 18:21:49 46° WNW 18:27:28 10° N
NOSS 3-4 (A) 3.9 18:17:35 20° SW 18:21:57 44° WNW 18:27:32 10° N
Meteor 1-27 Rocket 3.8 18:22:14 10° NNW 18:27:58 61° WSW 18:33:38 10° S
SMAP 3.8 18:25:48 10° NNW 18:29:59 32° W 18:33:50 12° SW
Cosmos 407 Rocket 3.5 18:27:14 10° NNW 18:32:30 80° WSW 18:37:54 10° SSE
Cosmos 1733 3.3 18:29:42 12° SSW 18:32:51 44° W 18:36:15 10° NNW
CZ-4 R/B 4.4 18:30:09 10° NNE 18:34:16 87° WNW 18:38:28 10° SSW
Sich 1 3.1 18:32:48 10° SSW 18:37:04 54° W 18:41:18 10° N
Okean 1 4.3 18:34:02 10° NW 18:37:09 24° WSW 18:40:19 10° SSW
SKYMED 2 3.5 18:35:45 10° S 18:40:10 69° WSW 18:44:31 10° NNW
CZ-4B R/B 4.4 18:39:33 10° NE 18:44:13 46° ESE 18:48:50 10° S
NOAA 6 4.0 18:40:40 10° NNE 18:45:49 88° WNW 18:51:02 10° SSW
Cosmos 1626 1.7 18:42:48 10° N 18:46:00 87° E 18:49:17 10° S
ADEOS Rocket 2.8 18:43:05 10° N 18:48:42 69° WNW 18:54:15 10° SSW
Cosmos 1536 4.3 18:48:32 13° SW 18:50:22 17° W 18:52:57 10° NW
Cosmos 2082 Rocket 2.2 18:45:01 10° NW 18:50:35 60° WSW 18:56:14 10° SSE
SL-16 R/B 3.8 18:46:36 10° S 18:51:39 31° ESE 18:56:39 10° ENE
Cosmos 1500 Rocket 4.3 18:48:05 10° SSW 18:52:02 31° W 18:55:54 10° NNW
BlueWalker 3 3.9 18:49:04 10° NNW 18:52:32 33° NE 18:56:02 10° ESE
Cosmos 1633 Rocket 3.9 18:48:12 10° S 18:52:35 55° E 18:56:55 10° NNE
Exosat Rocket 4.2 18:47:11 10° NNW 18:52:55 74° WSW 19:01:00 10° SSE
Cosmos 1697 Rocket 3.8 18:54:15 10° SW 18:58:53 26° WNW 19:03:28 10° NNW
YAOGAN 1 2.7 18:56:12 10° NNE 19:00:32 83° ESE 19:04:55 10° S
SL-4 R/B 3.8 18:58:41 10° SW 19:01:42 18° S 19:04:35 10° SE
Helios 1A 3.4 18:57:34 10° SSE 19:01:42 67° ENE 19:05:46 10° N
Cosmos 1763 Rocket 3.6 18:57:07 10° SSW 19:02:22 81° ESE 19:07:38 10° NNE
Resurs 01 Rocket 4.2 19:00:57 10° ENE 19:03:51 17° ESE 19:06:48 10° SSE
Cosmos 2251 Rocket 3.8 18:58:56 10° NW 19:04:02 47° WSW 19:09:11 10° S
Cosmos 2369 3.8 18:58:53 10° SSW 19:04:33 69° WNW 19:10:10 10° NNE
Radarsat Rocket 4.4 19:01:26 10° N 19:08:37 64° WNW 19:15:03 10° SSW
Cosmos 676 Rocket 4.3 19:06:28 10° N 19:11:38 74° ENE 19:16:54 10° SSE
Cosmos 2333 Rocket 4.2 19:08:46 10° S 19:13:09 22° SE 19:17:30 10° ENE
Cosmos 1190 Rocket 4.0 19:08:03 10° NNW 19:13:12 64° WSW 19:18:26 10° SSE
ATLAS 2AS CENTAUR R/B 4.1 19:07:50 10° SSW 19:14:34 37° SE 19:21:25 10° ENE
Cosmos 1470 Rocket 4.2 19:11:48 10° S 19:16:19 63° E 19:20:46 10° NNE
